[[{"header":{"parameterUnit":"m.s-1","parameterCategory":1,"la1":30.2991,"la2":30.254,"lo1":-89.0895,"lo2":-89.0444,"dy":0.0017,"dx":0.0017,"nx":28,"ny":28,"refTime":"2024-10-03T09:00:00:Z","depth":0,"parameterNumber":2,"parameterNumberName":"U-component_of_WINDS"},"data":[0,0,0,0,0,0,0,0,0,0,0,0,0,0,0,0,0,0,0,0,0,0,0,0,0,0,0,0,0,0,0,0,0,0,0,0,0,0,0,0,0,0,0,0,0,0,0,0,0,0,0,0,0,0,0,0,0,0,-2.2344,-2.2343,0,-2.2291,-2.229,-2.229,-2.2212,-2.2211,-2.221,-2.2208,-2.2157,-2.2157,-2.2157,0,0,0,0,0,0,0,0,0,0,0,0,0,-2.2379,-2.2379,-2.2344,-2.2343,-2.2342,-2.2291,-2.229,-2.229,-2.2213,-2.2211,-2.2209,-2.2208,-2.2157,-2.2157,-2.2157,0,0,0,0,0,0,0,0,0,0,0,0,0,-2.2349,-2.2379,-2.2344,-2.2298,-2.2293,-2.2291,-2.229,-2.2289,-2.2213,-2.2211,-2.2209,-2.2207,-2.2157,-2.2157,-2.2157,-2.2197,0,0,-2.2157,-2.2156,0,0,0,0,0,0,0,0,-2.2351,-2.2348,-2.2305,-2.2301,-2.2296,-2.2256,-2.2284,-2.2258,-2.2214,-2.2244,-2.2208,-2.2206,-2.2192,-2.2189,-2.2183,-2.2194,-2.2192,-2.2157,-2.2156,-2.2156,-2.2156,0,0,0,0,0,0,0,-2.2353,-2.2349,-2.2323,-2.2305,-2.2299,-2.228,-2.2274,-2.2279,-2.223,-2.2241,-2.2235,-2.223,-2.2189,-2.2184,-2.2182,-2.2191,-2.2157,-2.2156,-2.2156,-2.2156,-2.2231,-2.2233,0,0,0,0,0,0,-2.2361,-2.2352,-2.2325,-2.2321,-2.2319,-2.2281,-2.2274,-2.2271,-2.223,-2.2221,-2.2231,-2.2226,-2.2185,-2.2182,-2.218,-2.2223,-2.2156,-2.2156,-2.2156,-2.2229,-2.2232,-2.2234,0,0,0,0,0,0,-2.2363,-2.236,-2.2327,-2.2335,-2.2329,-2.2283,-2.228,-2.2271,-2.2266,-2.2223,-2.2214,-2.2235,-2.2183,-2.218,-2.2193,-2.222,-2.2156,-2.2156,-2.2227,-2.223,-2.2233,-2.2311,0,0,0,0,0,0,-2.2364,-2.2361,-2.2375,-2.2336,-2.2329,-2.2341,-2.2282,-2.2271,-2.2265,-2.2258,-2.2224,-2.2216,-2.2181,-2.2193,-2.2193,-2.2219,-2.2156,-2.2224,-2.2228,-2.2232,-2.2306,-2.2316,-2.2325,0,0,0,0,0,-2.2365,-2.24,-2.2376,-2.2374,-2.2346,-2.2342,-2.2339,-2.2297,-2.2268,-2.2282,-2.2254,-2.2217,-2.2217,-2.2195,-2.2194,-2.2221,-2.2222,-2.2227,-2.2231,-2.2301,-2.2314,-2.2325,0,0,0,0,0,0,-2.2446,-2.2394,-2.2367,-2.239,-2.2371,-2.2329,-2.2346,-2.2313,-2.2302,-2.2296,-2.2246,-2.2239,-2.2258,-2.224,-2.2217,-2.2256,-2.2214,-2.2219,-2.2268,-2.2279,-2.2289,-2.2294,-2.2156,0,0,0,0,0,-2.2466,-2.2466,-2.2421,-2.2446,-2.2438,-2.2394,-2.2391,-2.236,-2.2339,-2.2331,-2.2304,-2.2285,-2.228,-2.2279,-2.2272,-2.2302,-2.2294,-2.232,-2.233,-2.2338,-2.2343,-2.2357,-2.2368,-2.2249,-2.2249,-2.2249,0,0,-2.2508,-2.248,-2.2483,-2.2461,-2.2443,-2.2445,-2.2388,-2.2393,-2.2394,-2.2332,-2.2342,-2.2321,-2.2297,-2.2318,-2.2326,-2.2304,-2.2373,-2.2344,-2.2351,-2.2351,-2.2363,-2.2374,-2.2384,-2.2252,-2.2252,-2.2251,0,0,-2.2586,-2.2564,-2.2582,-2.2564,-2.2536,-2.2507,-2.2511,-2.2474,-2.2457,-2.2466,-2.242,-2.242,-2.2414,-2.2398,-2.2389,-2.2459,-2.2425,-2.2458,-2.2511,-2.2525,-2.2534,-2.2542,-2.2567,-2.2577,-2.2463,-2.2463,-2.2463,0,-2.2642,-2.2642,-2.2596,-2.2603,-2.2595,-2.2537,-2.2554,-2.254,-2.2512,-2.2508,-2.2483,-2.2472,-2.2452,-2.2469,-2.2485,-2.248,-2.2484,-2.2463,-2.2536,-2.2544,-2.2551,-2.2574,-2.2584,-2.2468,-2.2467,-2.2467,-2.2466,0,-2.2713,-2.2714,-2.2732,-2.2705,-2.2698,-2.2711,-2.2666,-2.2665,-2.2635,-2.2608,-2.2617,-2.259,-2.2577,-2.2578,-2.255,-2.2591,-2.2578,-2.2545,-2.2502,-2.2567,-2.2589,-2.2597,-2.2474,-2.2472,-2.2471,-2.247,0,0,-2.2842,-2.2787,-2.2795,-2.2781,-2.2746,-2.2746,-2.2755,-2.2741,-2.2741,-2.2723,-2.273,-2.2725,-2.2694,-2.2684,-2.2653,-2.2665,-2.2722,-2.2631,-2.2629,-2.2649,-2.2766,-2.2792,-2.2803,-2.2698,-2.27,-2.2701,-2.2768,0,-2.2913,-2.2926,-2.2884,-2.2908,-2.2908,-2.2852,-2.286,-2.2839,-2.2814,-2.281,-2.2782,-2.278,-2.2739,-2.2732,-2.2742,-2.2713,-2.2745,-2.2708,-2.2705,-2.2706,-2.2714,-2.2814,-2.2841,-2.2906,-2.2776,-2.2777,-2.2778,0,-2.2999,-2.2984,-2.3008,-2.297,-2.2968,-2.2976,-2.2959,-2.2957,-2.2931,-2.2912,-2.29,-2.2863,-2.2869,-2.2827,-2.2835,-2.2811,-2.2807,-2.2793,-2.2794,-2.2793,-2.2747,-2.2816,-2.2925,-2.2936,-2.2791,-2.279,-2.2789,0,-2.3091,-2.3077,-2.3089,-2.308,-2.3035,-2.3042,-2.3024,-2.2997,-2.299,-2.2975,-2.2971,-2.2957,-2.295,-2.2941,-2.2901,-2.2873,-2.2915,-2.2869,-2.2899,-2.29,-2.2912,-2.2912,-2.3023,-2.2908,-2.2908,-2.2907,-2.2907,0,-2.3176,-2.3193,-2.313,-2.3138,-2.3155,-2.3105,-2.3124,-2.31,-2.3076,-2.3078,-2.3029,-2.3032,-2.2978,-2.2976,-2.2944,-2.2956,-2.2953,-2.2938,-2.293,-2.2943,-2.2945,-2.2941,-2.2936,-2.291,-2.2909,-2.2909,-2.2908,0,-2.3283,-2.3242,-2.3251,-2.3207,-2.3197,-2.3211,-2.3174,-2.3179,-2.3149,-2.3153,-2.3151,-2.3105,-2.3099,-2.3057,-2.3043,-2.3021,-2.3046,-2.3028,-2.3054,-2.3049,-2.3082,-2.308,-2.3195,-2.3207,-2.3084,-2.3085,-2.3086,0,-2.3341,-2.3352,-2.3309,-2.3307,-2.329,-2.3287,-2.328,-2.3231,-2.3225,-2.3196,-2.3206,-2.3195,-2.3185,-2.3178,-2.3144,-2.3132,-2.3114,-2.3155,-2.3112,-2.3125,-2.3115,-2.3116,-2.3116,-2.3165,-2.3166,-2.3168,-2.3169,0,-2.3448,-2.3426,-2.3417,-2.3401,-2.3393,-2.3379,-2.3361,-2.3362,-2.3307,-2.3304,-2.3296,-2.3288,-2.3272,-2.3262,-2.3244,-2.3226,-2.3189,-2.3182,-2.3189,-2.3203,-2.3218,-2.3211,-2.308,-2.318,-2.3179,-2.3178,-2.3178,-2.3177,-2.3532,-2.3539,-2.351,-2.3501,-2.3482,-2.3466,-2.3469,-2.3438,-2.3431,-2.3414,-2.3385,-2.3382,-2.3355,-2.3326,-2.3311,-2.3308,-2.3286,-2.3296,-2.3298,-2.3302,-2.3309,-2.3217,-2.3304,-2.3304,-2.3303,-2.3303,-2.3303,0,-2.3637,-2.3614,-2.3607,-2.3583,-2.3576,-2.3539,-2.3517,-2.3514,-2.3512,-2.3489,-2.3479,-2.347,-2.3461,-2.3425,-2.3411,-2.3416,-2.3398,-2.3414,-2.3414,-2.341,-2.3329,-2.3324,-2.3428,-2.3428,-2.3428,-2.3428,-2.3428,-2.3428,-2.3691,-2.3701,-2.3675,-2.3675,-2.3653,-2.3648,-2.3639,-2.3624,-2.3605,-2.3597,-2.3589,-2.3564,-2.3536,-2.352,-2.3509,-2.3499,-2.3497,-2.3518,-2.3503,-2.3428,-2.3416,-2.3404,-2.34,-2.3518,-2.3518,-2.3584,-2.3585,-2.3585]},{"header":{"parameterUnit":"m.s-1","parameterCategory":1,"la1":30.2991,"la2":30.254,"lo1":-89.0895,"lo2":-89.0444,"dy":0.0017,"dx":0.0017,"nx":28,"ny":28,"refTime":"2024-10-03T09:00:00:Z","depth":0,"parameterNumber":3,"parameterNumberName":"V-component_of_WINDS"},"data":[0,0,0,0,0,0,0,0,0,0,0,0,0,0,0,0,0,0,0,0,0,0,0,0,0,0,0,0,0,0,0,0,0,0,0,0,0,0,0,0,0,0,0,0,0,0,0,0,0,0,0,0,0,0,0,0,0,0,-2.4543,-2.4545,0,-2.4685,-2.4686,-2.4688,-2.471,-2.4709,-2.4707,-2.4706,-2.4856,-2.4861,-2.4866,0,0,0,0,0,0,0,0,0,0,0,0,0,-2.4296,-2.4301,-2.4543,-2.4545,-2.4547,-2.4685,-2.4687,-2.4688,-2.471,-2.4709,-2.4707,-2.4706,-2.4854,-2.486,-2.4866,0,0,0,0,0,0,0,0,0,0,0,0,0,-2.4417,-2.4302,-2.4543,-2.4574,-2.4578,-2.4684,-2.4687,-2.4689,-2.4711,-2.4709,-2.4707,-2.4705,-2.4852,-2.486,-2.4867,-2.4953,0,0,-2.4891,-2.4894,0,0,0,0,0,0,0,0,-2.441,-2.4426,-2.4568,-2.4572,-2.4577,-2.4678,-2.4654,-2.4778,-2.4711,-2.466,-2.4706,-2.4704,-2.4798,-2.481,-2.4841,-2.496,-2.4967,-2.4892,-2.4896,-2.49,-2.4902,0,0,0,0,0,0,0,-2.4402,-2.442,-2.4599,-2.457,-2.4575,-2.4583,-2.4598,-2.4678,-2.4739,-2.4665,-2.4667,-2.4683,-2.4801,-2.4834,-2.4845,-2.4969,-2.4891,-2.4898,-2.4903,-2.4906,-2.5168,-2.517,0,0,0,0,0,0,-2.4387,-2.4413,-2.4595,-2.4604,-2.4487,-2.4588,-2.4605,-2.4647,-2.4738,-2.475,-2.4684,-2.4683,-2.4821,-2.4836,-2.485,-2.4959,-2.49,-2.4907,-2.4911,-2.5166,-2.5168,-2.5171,0,0,0,0,0,0,-2.4382,-2.4403,-2.4589,-2.4509,-2.4533,-2.4595,-2.4642,-2.4651,-2.4684,-2.4752,-2.4764,-2.4707,-2.4821,-2.4839,-2.4928,-2.4964,-2.491,-2.4917,-2.5163,-2.5167,-2.517,-2.5175,0,0,0,0,0,0,-2.4375,-2.4401,-2.4433,-2.4509,-2.4537,-2.4663,-2.4644,-2.4655,-2.4697,-2.4697,-2.4777,-2.4788,-2.482,-2.4916,-2.4935,-2.4974,-2.4923,-2.516,-2.5165,-2.5169,-2.5172,-2.5178,-2.5184,0,0,0,0,0,-2.4366,-2.443,-2.4435,-2.4457,-2.4579,-2.4665,-2.4681,-2.4716,-2.47,-2.4734,-2.4778,-2.4785,-2.4956,-2.4925,-2.4947,-2.4988,-2.5158,-2.5163,-2.5168,-2.5169,-2.5177,-2.5183,0,0,0,0,0,0,-2.4358,-2.444,-2.4447,-2.4537,-2.4593,-2.4668,-2.4712,-2.4722,-2.4786,-2.4783,-2.4825,-2.4843,-2.493,-2.4968,-2.4931,-2.5077,-2.5056,-2.5066,-2.5049,-2.5057,-2.5063,-2.5053,-2.493,0,0,0,0,0,-2.4366,-2.4427,-2.4497,-2.457,-2.4598,-2.465,-2.4689,-2.471,-2.4771,-2.4796,-2.4846,-2.4906,-2.4974,-2.5017,-2.5083,-2.5177,-2.5196,-2.5216,-2.5222,-2.5227,-2.5235,-2.529,-2.5301,-2.5188,-2.5188,-2.5188,0,0,-2.4385,-2.4437,-2.4474,-2.457,-2.4616,-2.4681,-2.467,-2.4738,-2.4787,-2.4807,-2.4893,-2.4932,-2.5002,-2.5094,-2.5137,-2.5128,-2.527,-2.5233,-2.5236,-2.5243,-2.5296,-2.5307,-2.5316,-2.5192,-2.5191,-2.519,0,0,-2.4452,-2.4497,-2.4564,-2.461,-2.468,-2.4714,-2.473,-2.4803,-2.483,-2.4917,-2.4933,-2.4993,-2.5107,-2.5157,-2.5197,-2.5284,-2.5294,-2.5304,-2.5336,-2.5388,-2.5397,-2.5405,-2.5438,-2.5449,-2.5312,-2.5312,-2.5312,0,-2.4467,-2.4563,-2.4597,-2.4665,-2.4707,-2.4726,-2.4795,-2.4839,-2.4928,-2.4957,-2.4946,-2.5091,-2.5139,-2.5244,-2.5265,-2.5296,-2.5318,-2.5296,-2.5393,-2.5401,-2.5409,-2.5441,-2.5453,-2.5313,-2.5313,-2.5313,-2.5313,0,-2.4579,-2.4645,-2.4691,-2.4775,-2.4822,-2.489,-2.4936,-2.498,-2.4998,-2.5034,-2.5124,-2.5182,-2.5261,-2.5287,-2.5305,-2.5395,-2.5388,-2.5384,-2.5364,-2.542,-2.5451,-2.5464,-2.5314,-2.5314,-2.5314,-2.5314,0,0,-2.4646,-2.4747,-2.4763,-2.4802,-2.4881,-2.4934,-2.5003,-2.5079,-2.5117,-2.5178,-2.5239,-2.5335,-2.5333,-2.5378,-2.5403,-2.5449,-2.5516,-2.544,-2.5442,-2.5454,-2.5621,-2.5625,-2.5638,-2.5522,-2.5525,-2.5527,-2.5616,0,-2.4724,-2.4847,-2.4879,-2.4985,-2.5048,-2.5067,-2.5128,-2.5184,-2.522,-2.528,-2.532,-2.5389,-2.5379,-2.5407,-2.5453,-2.5498,-2.555,-2.5492,-2.5582,-2.5585,-2.5566,-2.5654,-2.5658,-2.5739,-2.5628,-2.563,-2.5631,0,-2.4831,-2.4893,-2.5004,-2.5075,-2.5103,-2.5157,-2.523,-2.5286,-2.5351,-2.5374,-2.5425,-2.5445,-2.552,-2.5495,-2.5601,-2.556,-2.5599,-2.5627,-2.5631,-2.5642,-2.5613,-2.567,-2.5765,-2.5778,-2.565,-2.5649,-2.5647,0,-2.4871,-2.4982,-2.5063,-2.5096,-2.518,-2.5218,-2.5256,-2.5318,-2.5362,-2.5426,-2.5455,-2.5527,-2.5568,-2.5624,-2.5664,-2.5641,-2.5767,-2.5744,-2.579,-2.5789,-2.5817,-2.5816,-2.5923,-2.5839,-2.5839,-2.5839,-2.5838,0,-2.4956,-2.5024,-2.5082,-2.5133,-2.521,-2.5247,-2.5323,-2.5362,-2.5417,-2.5477,-2.5498,-2.5554,-2.5602,-2.5665,-2.5697,-2.5781,-2.5798,-2.582,-2.5829,-2.582,-2.5817,-2.5847,-2.5844,-2.5842,-2.5841,-2.584,-2.584,0,-2.5014,-2.5056,-2.5146,-2.5219,-2.5239,-2.5293,-2.5356,-2.5407,-2.5442,-2.5518,-2.5538,-2.5595,-2.567,-2.5715,-2.581,-2.5832,-2.5926,-2.593,-2.5904,-2.5908,-2.5952,-2.5948,-2.6084,-2.6104,-2.6005,-2.6005,-2.6006,0,-2.5066,-2.5119,-2.5197,-2.5238,-2.5275,-2.5341,-2.5385,-2.5424,-2.547,-2.5548,-2.559,-2.5666,-2.5729,-2.5849,-2.59,-2.5974,-2.5982,-2.6024,-2.5993,-2.5984,-2.5985,-2.5983,-2.5989,-2.603,-2.6031,-2.6032,-2.6033,0,-2.5155,-2.5173,-2.5236,-2.5306,-2.5359,-2.5416,-2.5474,-2.5506,-2.5555,-2.5606,-2.5683,-2.5732,-2.5829,-2.5905,-2.5983,-2.6024,-2.6038,-2.6042,-2.6057,-2.6049,-2.6033,-2.6045,-2.592,-2.6039,-2.6038,-2.6038,-2.6037,-2.6037,-2.5214,-2.5262,-2.5325,-2.5394,-2.5441,-2.5495,-2.5546,-2.5588,-2.5652,-2.5733,-2.5753,-2.5834,-2.5899,-2.6005,-2.6047,-2.6112,-2.6106,-2.6127,-2.6133,-2.6138,-2.614,-2.602,-2.6127,-2.6126,-2.6126,-2.6126,-2.6126,0,-2.5306,-2.5347,-2.541,-2.5489,-2.5545,-2.555,-2.5614,-2.5661,-2.5731,-2.579,-2.5851,-2.594,-2.6015,-2.6071,-2.6148,-2.619,-2.6198,-2.6209,-2.6207,-2.6217,-2.6141,-2.6121,-2.6201,-2.6201,-2.6201,-2.6201,-2.6201,-2.6201,-2.536,-2.5442,-2.5468,-2.5575,-2.5616,-2.5694,-2.5731,-2.5781,-2.5828,-2.5926,-2.5987,-2.6023,-2.6082,-2.6163,-2.6232,-2.6247,-2.6276,-2.6286,-2.6302,-2.623,-2.6222,-2.6214,-2.6196,-2.6291,-2.6291,-2.6374,-2.6374,-2.6375]}]]